Weather History for Southport, NC

Change the Weather History Date:

Tuesday, May 13, 2014

  Actual Average (KILM) Record (KILM)
Temperature  
Mean Temperature 77 °F 70 °F  
Max Temperature 83 °F 80 °F 95 °F (2000)
Min Temperature 71 °F 59 °F 44 °F (1917)
Degree Days  
Heating Degree Days 0 1  
Month to date heating degree days 19  
Since 1 July heating degree days 2401  
Cooling Degree Days 12 6  
Month to date cooling degree days 59  
Year to date cooling degree days 147  
Growing Degree Days 27 (Base 50)    
Moisture  
Dew Point 70 °F    
Average Humidity 81    
Maximum Humidity 96    
Minimum Humidity 63    
Precipitation  
Precipitation 0.00 in 0.13 in 2.85 in (1871)
Month to date precipitation 1.61  
Year to date precipitation 16.02  
Sea Level Pressure  
Sea Level Pressure 30.16 in    
Wind  
Wind Speed 6 mph (SSW)    
Max Wind Speed 10 mph    
Max Gust Speed 17 mph    
Visibility 10 miles    
Events      
T = Trace of Precipitation, MM = Missing Value Source: NWS Daily Summary

Daily Weather History Graph

Daily Weather History Graph

Search for Another Location

Airport:

Trip Planner

Search our weather history database for the weather conditions in past years. The results will help you decide how hot, cold, wet, or windy it might be!

Date:

Astronomy

May. 13, 2014 Rise Set
Actual Time 6:12 AM EDT 8:05 PM EDT
Civil Twilight 5:45 AM EDT 8:32 PM EDT
Nautical Twilight 5:11 AM EDT 9:06 PM EDT
Astronomical Twilight 4:36 AM EDT 9:41 PM EDT
Moon 7:07 PM EDT (5/13) 5:23 AM EDT (5/13)
Length of Visible Light 14h 47m
Length of Day
13h 52m
Waxing Gibbous, 98% of the Moon is Illuminated
May 13
Waxing Gibbous
May 14
Full
May 21
Last Quarter
May 28
New
Jun 5
First Quarter

Hourly Weather History & Observations

Time (EDT) Temp. Heat Index Dew Point Humidity Pressure Visibility Wind Dir Wind Speed Gust Speed Precip Events Conditions
12:15 AM 73.8 °F - 69.8 °F 87% 30.16 in 10.0 mi SW 4.6 mph - N/A   Clear
12:35 AM 73.4 °F - 69.4 °F 87% 30.16 in 10.0 mi SSW 4.6 mph - N/A   Clear
12:55 AM 73.4 °F - 69.3 °F 87% 30.16 in 10.0 mi SSW 4.6 mph - N/A   Clear
1:15 AM 73.2 °F - 69.4 °F 88% 30.16 in 10.0 mi SSW 3.5 mph - N/A   Clear
1:35 AM 73.4 °F - 69.8 °F 88% 30.15 in 10.0 mi Calm Calm - N/A   Clear
1:55 AM 73.2 °F - 69.8 °F 89% 30.15 in 10.0 mi SW 6.9 mph - N/A   Clear
2:15 AM 73.0 °F - 70.2 °F 91% 30.14 in 10.0 mi SSW 4.6 mph - N/A   Clear
2:35 AM 72.9 °F - 70.7 °F 93% 30.14 in 10.0 mi SW 5.8 mph - N/A   Clear
2:55 AM 72.9 °F - 70.7 °F 93% 30.14 in 10.0 mi SW 5.8 mph - N/A   Clear
3:15 AM 72.7 °F - 70.7 °F 93% 30.14 in 10.0 mi SW 4.6 mph - N/A   Clear
3:35 AM 72.5 °F - 70.7 °F 94% 30.14 in 10.0 mi SW 5.8 mph - N/A   Clear
3:55 AM 72.5 °F - 70.9 °F 95% 30.14 in 10.0 mi WSW 5.8 mph - N/A   Clear
4:15 AM 72.5 °F - 70.9 °F 95% 30.15 in 10.0 mi WSW 4.6 mph - N/A   Clear
4:35 AM 72.5 °F - 70.7 °F 94% 30.15 in 10.0 mi SW 4.6 mph - N/A   Clear
4:55 AM 72.5 °F - 70.7 °F 94% 30.15 in 10.0 mi WSW 4.6 mph - N/A   Mostly Cloudy
5:15 AM 72.5 °F - 70.7 °F 94% 30.15 in 10.0 mi Calm Calm - N/A   Mostly Cloudy
5:35 AM 72.5 °F - 70.9 °F 95% 30.16 in 10.0 mi SW 4.6 mph - N/A   Scattered Clouds
5:55 AM 71.8 °F - 70.3 °F 95% 30.16 in 7.0 mi Calm Calm - N/A   Scattered Clouds
6:15 AM 71.6 °F - 70.2 °F 95% 30.17 in 7.0 mi SW 3.5 mph - N/A   Scattered Clouds
6:35 AM 71.8 °F - 70.5 °F 96% 30.17 in 5.0 mi SW 3.5 mph - N/A   Clear
6:55 AM 72.5 °F - 71.1 °F 95% 30.18 in 7.0 mi SW 3.5 mph - N/A   Clear
7:15 AM 72.5 °F - 71.1 °F 95% 30.19 in 7.0 mi SW 3.5 mph - N/A   Clear
7:35 AM 73.6 °F - 71.4 °F 93% 30.19 in 10.0 mi SW 6.9 mph - N/A   Mostly Cloudy
7:55 AM 74.3 °F - 71.6 °F 91% 30.19 in 10.0 mi WSW 6.9 mph - N/A   Mostly Cloudy
9:15 AM 78.3 °F - 70.7 °F 77% 30.19 in 10.0 mi SW 9.2 mph - N/A   Scattered Clouds
9:35 AM 79.3 °F - 70.5 °F 74% 30.19 in 10.0 mi WSW 9.2 mph - N/A   Clear
9:55 AM 79.5 °F - 70.2 °F 73% 30.19 in 10.0 mi SW 8.1 mph - N/A   Clear
10:15 AM 80.8 °F 84.1 °F 69.8 °F 69% 30.19 in 10.0 mi SW 9.2 mph - N/A   Clear
11:55 AM 81.7 °F 85.2 °F 69.6 °F 67% 30.20 in 4.0 mi SW 9.2 mph - N/A   Haze
12:35 PM 82.8 °F 86.2 °F 69.1 °F 63% 30.20 in 10.0 mi WSW 8.1 mph 17.3 mph N/A   Clear
1:15 PM 83.1 °F 86.8 °F 69.4 °F 63% 30.19 in 10.0 mi SW 8.1 mph - N/A   Clear
1:35 PM 82.6 °F 86.1 °F 69.3 °F 64% 30.19 in 10.0 mi SW 8.1 mph - N/A   Clear
1:55 PM 82.9 °F 86.5 °F 69.1 °F 63% 30.19 in 10.0 mi SSW 6.9 mph - N/A   Clear
2:15 PM 82.6 °F 85.9 °F 68.7 °F 63% 30.18 in 10.0 mi SSW 9.2 mph - N/A   Clear
2:35 PM 81.9 °F 85.2 °F 69.3 °F 65% 30.18 in 10.0 mi SSW 5.8 mph - N/A   Clear
2:55 PM 82.4 °F 86.3 °F 69.8 °F 66% 30.17 in 10.0 mi SW 9.2 mph - N/A   Clear
3:15 PM 82.0 °F 85.7 °F 69.8 °F 66% 30.17 in 10.0 mi SSW 9.2 mph - N/A   Clear
3:35 PM 81.5 °F 84.9 °F 69.4 °F 67% 30.16 in 10.0 mi South 10.4 mph - N/A   Clear
3:55 PM 81.1 °F 84.2 °F 68.9 °F 66% 30.16 in 10.0 mi SSW 10.4 mph - N/A   Clear
4:15 PM 81.1 °F 84.5 °F 69.8 °F 68% 30.16 in 10.0 mi SSW 9.2 mph - N/A   Clear
4:35 PM 80.4 °F 83.4 °F 69.1 °F 68% 30.16 in 10.0 mi South 8.1 mph - N/A   Clear
4:55 PM 80.8 °F 83.8 °F 69.1 °F 67% 30.16 in 10.0 mi SSW 9.2 mph - N/A   Clear
5:15 PM 80.6 °F 83.6 °F 69.3 °F 68% 30.15 in 10.0 mi South 8.1 mph - N/A   Clear
5:35 PM 79.5 °F - 68.4 °F 69% 30.15 in 10.0 mi South 10.4 mph - N/A   Clear
5:55 PM 79.3 °F - 68.2 °F 69% 30.14 in 10.0 mi South 10.4 mph - N/A   Clear
6:15 PM 79.3 °F - 69.4 °F 72% 30.14 in 10.0 mi South 8.1 mph - N/A   Clear
6:35 PM 78.1 °F - 68.9 °F 73% 30.14 in 10.0 mi South 10.4 mph - N/A   Clear
6:55 PM 77.5 °F - 69.1 °F 75% 30.14 in 10.0 mi South 5.8 mph - N/A   Clear
7:15 PM 77.0 °F - 68.9 °F 76% 30.14 in 10.0 mi South 8.1 mph - N/A   Clear
7:35 PM 76.1 °F - 68.9 °F 78% 30.15 in 10.0 mi South 6.9 mph - N/A   Clear
7:55 PM 76.1 °F - 69.3 °F 79% 30.15 in 10.0 mi South 5.8 mph - N/A   Clear
8:15 PM 74.7 °F - 69.1 °F 83% 30.15 in 10.0 mi South 5.8 mph - N/A   Clear
8:35 PM 74.5 °F - 69.3 °F 84% 30.15 in 10.0 mi South 5.8 mph - N/A   Clear
8:55 PM 74.3 °F - 69.3 °F 84% 30.16 in 10.0 mi South 4.6 mph - N/A   Clear
9:15 PM 74.3 °F - 69.1 °F 84% 30.16 in 10.0 mi SSW 5.8 mph - N/A   Clear
9:35 PM 74.3 °F - 69.1 °F 84% 30.16 in 10.0 mi South 5.8 mph - N/A   Clear
9:55 PM 74.3 °F - 69.1 °F 84% 30.16 in 10.0 mi SSW 4.6 mph - N/A   Clear
10:15 PM 74.3 °F - 68.7 °F 83% 30.17 in 10.0 mi SSW 3.5 mph - N/A   Clear
10:35 PM 74.3 °F - 69.1 °F 84% 30.17 in 10.0 mi SW 5.8 mph - N/A   Clear
10:55 PM 74.3 °F - 69.1 °F 84% 30.17 in 10.0 mi SW 4.6 mph - N/A   Clear
11:15 PM 74.3 °F - 69.8 °F 86% 30.18 in 10.0 mi SSW 3.5 mph - N/A   Clear
11:35 PM 73.6 °F - 69.4 °F 87% 30.18 in 10.0 mi SW 5.8 mph - N/A   Clear
11:55 PM 73.4 °F - 69.6 °F 88% 30.18 in 10.0 mi SSW 4.6 mph - N/A   Clear